Date String (YYYY-MM-DD hh:mm:ss) UTC,Instrument flags,Ambient pressure (hPa),Sample flow (lpm),Bypass flow (lpm),Sample temperature (°C),Ambient temperature (°C),ASC tube jacket temperature (°C),LED temperature (°C),Box temperature (°C),Sample RH (%),Span deviation,Mass concentration (μg/m³),Mass concentration (μg/m³),Mass concentration (μg/m³)
DateTimeUTC,F1_M11,P_M11,Q1_M11,Q2_M11,T1_M11,T2_M11,T3_M11,T4_M11,T5_M11,U1_M11,ZSPAN_M11,X0_M11,X2_M11,X1_M11
2022-05-26 03:00:00,,0824.3,5.01,0.00,29.5,28.7,00.0,38.4,31.4,12.3,0000.0,0005.49,0002.66,0002.15
2022-05-26 03:01:00,,0824.3,5.00,0.00,29.6,28.7,00.0,38.5,31.4,12.3,0000.0,0005.08,0002.66,0002.12
2022-05-26 03:02:00,,0824.3,4.99,0.00,29.6,28.8,00.0,38.5,31.4,12.4,0000.0,0004.44,0002.59,0002.08
2022-05-26 03:03:00,,0824.3,5.01,0.00,29.6,28.8,00.0,38.5,31.4,12.3,0000.0,0004.00,0002.52,0002.02
2022-05-26 03:04:00,,0824.3,5.00,0.00,29.6,28.8,00.0,38.5,31.5,12.4,0000.0,0003.42,0002.44,0001.99
2022-05-26 03:05:00,,0824.3,4.99,0.00,29.7,28.9,00.0,38.5,31.5,12.5,0000.0,0003.32,0002.41,0001.98
2022-05-26 03:06:00,,0824.3,5.01,0.00,29.7,28.9,00.0,38.5,31.5,12.6,0000.0,0003.38,0002.42,0001.96
2022-05-26 03:07:00,,0824.3,5.01,0.00,29.7,28.9,00.0,38.5,31.6,12.8,0000.0,0004.17,0002.42,0001.97
2022-05-26 03:08:00,,0824.3,5.00,0.00,29.7,29.0,00.0,38.6,31.6,12.9,0000.0,0004.28,0002.42,0001.98
2022-05-26 03:09:00,,0824.3,4.99,0.00,29.7,29.0,00.0,38.6,31.6,12.4,0000.0,0004.24,0002.40,0001.97
2022-05-26 03:10:00,,0824.3,5.00,0.00,29.8,29.0,00.0,38.6,31.7,12.2,0000.0,0004.25,0002.39,0001.96
2022-05-26 03:11:00,,0824.3,5.00,0.00,29.8,29.1,00.0,38.6,31.7,12.2,0000.0,0004.55,0002.38,0001.95
2022-05-26 03:12:00,,0824.3,5.00,0.00,29.8,29.1,00.0,38.6,31.7,12.7,0000.0,0004.41,0002.34,0001.96
2022-05-26 03:13:00,,0824.3,5.00,0.00,29.8,29.1,00.0,38.7,31.7,12.1,0000.0,0004.40,0002.34,0001.98
2022-05-26 03:14:00,,0824.4,4.98,0.00,29.9,29.1,00.0,38.7,31.8,12.0,0000.0,0004.38,0002.35,0001.99
2022-05-26 03:15:00,,0824.4,5.01,0.00,29.9,29.2,00.0,38.7,31.8,11.9,0000.0,0004.43,0002.38,0002.01
2022-05-26 03:16:00,,0824.4,5.01,0.00,29.9,29.2,00.0,38.7,31.8,11.7,0000.0,0004.32,0002.35,0002.02
2022-05-26 03:17:00,,0824.4,4.99,0.00,29.9,28.4,00.0,38.7,31.7,11.7,0000.0,0004.33,0002.36,0002.03
2022-05-26 03:18:00,,0824.3,5.00,0.00,29.8,27.6,00.0,38.6,31.4,11.7,0000.0,0003.79,0002.37,0002.04
2022-05-26 03:19:00,,0824.3,5.02,0.00,29.7,27.4,00.0,38.6,31.3,11.7,0000.0,0003.52,0002.39,0002.05
2022-05-26 03:20:00,,0824.3,4.98,0.00,29.6,27.4,00.0,38.5,31.2,11.9,0000.0,0003.56,0002.39,0002.04
2022-05-26 03:21:00,,0824.4,5.00,0.00,29.6,27.5,00.0,38.5,31.2,12.0,0000.0,0003.90,0002.40,0002.04
2022-05-26 03:22:00,,0824.4,5.02,0.00,29.6,27.6,00.0,38.5,31.2,12.0,0000.0,0003.58,0002.41,0002.05
2022-05-26 03:23:00,,0824.4,5.00,0.00,29.5,27.8,00.0,38.5,31.3,12.3,0000.0,0003.70,0002.41,0002.04
2022-05-26 03:24:00,,0824.4,4.98,0.00,29.5,27.9,00.0,38.5,31.3,12.4,0000.0,0004.07,0002.42,0002.04
2022-05-26 03:25:00,,0824.4,5.00,0.00,29.6,28.1,00.0,38.5,31.3,12.3,0000.0,0004.68,0002.45,0002.05
2022-05-26 03:26:00,,0824.4,5.00,0.00,29.6,28.2,00.0,38.5,31.4,12.3,0000.0,0004.84,0002.49,0002.06
2022-05-26 03:27:00,,0824.4,5.01,0.00,29.6,28.3,00.0,38.5,31.4,12.3,0000.0,0005.01,0002.53,0002.06
2022-05-26 03:28:00,,0824.4,5.00,0.00,29.6,28.4,00.0,38.5,31.4,12.3,0000.0,0004.97,0002.53,0002.06
2022-05-26 03:29:00,,0824.4,4.99,0.00,29.6,28.5,00.0,38.5,31.5,12.1,0000.0,0004.93,0002.51,0002.06
2022-05-26 03:30:00,,0824.4,5.01,0.00,29.6,28.5,00.0,38.5,31.5,12.1,0000.0,0004.83,0002.48,0002.05
2022-05-26 03:31:00,,0824.4,4.99,0.00,29.6,28.6,00.0,38.5,31.5,12.0,0000.0,0004.90,0002.53,0002.05
2022-05-26 03:32:00,,0824.4,4.98,0.00,29.7,28.7,00.0,38.5,31.5,12.0,0000.0,0004.66,0002.53,0002.05
2022-05-26 03:33:00,,0824.4,5.00,0.00,29.7,28.7,00.0,38.5,31.6,11.9,0000.0,0004.58,0002.56,0002.05
2022-05-26 03:34:00,,0824.4,5.01,0.00,29.7,28.8,00.0,38.5,31.6,11.9,0000.0,0004.48,0002.54,0002.05
2022-05-26 03:35:00,,0824.5,5.01,0.00,29.7,28.8,00.0,38.6,31.6,12.0,0000.0,0004.27,0002.56,0002.04
2022-05-26 03:36:00,,0824.5,5.00,0.00,29.8,28.8,00.0,38.6,31.6,11.9,0000.0,0003.61,0002.54,0002.02
2022-05-26 03:37:00,,0824.5,4.99,0.00,29.8,28.8,00.0,38.6,31.7,11.9,0000.0,0003.53,0002.55,0002.02
2022-05-26 03:38:00,,0824.5,5.01,0.00,29.8,28.9,00.0,38.6,31.7,11.9,0000.0,0003.34,0002.50,0002.00
2022-05-26 03:39:00,,0824.5,5.00,0.00,29.8,28.9,00.0,38.6,31.7,11.9,0000.0,0003.31,0002.48,0001.99
2022-05-26 03:40:00,,0824.5,4.98,0.00,29.8,28.9,00.0,38.6,31.7,11.8,0000.0,0003.35,0002.48,0001.98
2022-05-26 03:41:00,,0824.5,5.00,0.00,29.8,28.9,00.0,38.6,31.7,11.7,0000.0,0004.84,0002.52,0001.98
2022-05-26 03:42:00,,0824.6,5.00,0.00,29.9,29.0,00.0,38.7,31.8,11.6,0000.0,0005.47,0002.49,0001.98
2022-05-26 03:43:00,,0824.6,5.01,0.00,29.9,29.0,00.0,38.7,31.8,12.2,0000.0,0005.49,0002.49,0001.99
2022-05-26 03:44:00,,0824.5,4.98,0.00,29.9,29.0,00.0,38.7,31.8,12.2,0000.0,0005.49,0002.48,0001.98
2022-05-26 03:45:00,,0824.6,5.00,0.00,29.9,29.0,00.0,38.7,31.7,12.0,0000.0,0005.49,0002.51,0001.99
2022-05-26 03:46:00,,0824.6,5.00,0.00,29.9,29.0,00.0,38.7,31.8,12.3,0000.0,0005.34,0002.45,0001.98
2022-05-26 03:47:00,,0824.6,5.00,0.00,29.9,29.1,00.0,38.8,31.8,12.3,0000.0,0005.32,0002.45,0002.00
2022-05-26 03:48:00,,0824.6,5.00,0.00,30.0,29.1,00.0,38.8,31.8,12.2,0000.0,0005.29,0002.40,0001.99
2022-05-26 03:49:00,,0824.6,4.99,0.00,30.0,29.1,00.0,38.8,31.9,11.9,0000.0,0005.42,0002.40,0002.00
2022-05-26 03:50:00,,0824.6,4.99,0.00,30.0,29.1,00.0,38.8,31.9,12.0,0000.0,0005.41,0002.40,0002.02
2022-05-26 03:51:00,,0824.6,5.00,0.00,30.0,29.1,00.0,38.8,31.9,11.8,0000.0,0005.35,0002.39,0002.03
2022-05-26 03:52:00,,0824.5,5.02,0.00,30.0,29.1,00.0,38.8,31.9,11.7,0000.0,0003.81,0002.40,0002.05
2022-05-26 03:53:00,,0824.5,4.99,0.00,30.0,29.1,00.0,38.8,31.9,11.8,0000.0,0003.33,0002.39,0002.03
2022-05-26 03:54:00,,0824.5,5.00,0.00,30.0,29.2,00.0,38.9,31.9,12.0,0000.0,0003.40,0002.40,0002.02
2022-05-26 03:55:00,,0824.5,5.00,0.00,30.0,29.2,00.0,38.9,31.9,12.2,0000.0,0003.40,0002.39,0002.02
2022-05-26 03:56:00,,0824.5,5.01,0.00,30.1,29.2,00.0,38.9,31.9,11.5,0000.0,0003.68,0002.40,0002.02
2022-05-26 03:57:00,,0824.5,5.00,0.00,30.1,29.2,00.0,38.9,31.9,11.3,0000.0,0004.18,0002.45,0002.02
2022-05-26 03:58:00,,0824.5,5.00,0.00,30.1,29.2,00.0,38.9,32.0,11.2,0000.0,0004.36,0002.49,0002.03
2022-05-26 03:59:00,,0824.6,5.01,0.00,30.1,29.2,00.0,38.9,32.0,11.2,0000.0,0004.31,0002.49,0002.03
